Regional Weather Roundup
Issued by NWS Upton, NY

Home | Current Version | Previous Version | Text Only | Print | Product List | Glossary On
Versions: 1 2 3 4 5 6 7 8 9 10 11 12 13 14 15 16 17 18 19 20 21 22 23 24 25 26 27 28 29 30 31 32 33 34 35 36 37 38 39 40 41 42 43 44 45 46 47 48 49 50
418
ASUS41 KOKX 220814
RWROKX

Regional Weather Roundup
National Weather Service New York NY
300 AM EST FRI NOV 22 2019

Note: "FAIR" indicates few or no clouds below 12,000 feet with no
significant weather and/or obstructions to visibility.

NYZ071-072-176-178-NJZ106-104-220900-
New York City Metro Area

CITY           SKY/WX    TMP DP  RH WIND       PRES   REMARKS
Central Park   CLOUDY    49  34  56 SW6       29.93F
Bronx Lehman C   N/A     50  34  53 SW6         N/A
LaGuardia Arpt CLOUDY    49  33  54 SW9       29.91F
Queens College   N/A     48  36  61 S14         N/A
Kennedy Intl   CLOUDY    48  38  68 S15       29.93F
Breezy Point   NOT AVBL
Brooklyn Coll    N/A     48  36  61 S9          N/A
Staten Island    N/A     46  36  66 S3          N/A
Newark/Liberty CLOUDY    48  35  60 S13       29.92F
Teterboro      CLOUDY    48  39  71 S10       29.90F
$$

NYZ177-179-078>081-220900-
Long Island New York

CITY           SKY/WX    TMP DP  RH WIND       PRES   REMARKS
Jones Beach      N/A     50 N/A N/A SW13G20     N/A
Wantagh          N/A     50  39  66 SW12        N/A
Hempstead        N/A     48  39  71 S6        29.97
Matinecock Pt    N/A     48 N/A N/A SW12        N/A
Farmingdale    CLOUDY    50  37  61 SW14G20   29.93F
MacArthur/ISP  CLOUDY    50  39  66 SW12      29.92F
Stony Brook      N/A     48  37  66 SW3         N/A
Shirley        CLOUDY    51  38  60 S13       29.93F
Mt Sinai Harb    N/A    N/A N/A N/A SW8G16      N/A
Westhampton    CLOUDY    50  42  74 SW10      29.95F
East Hampton   CLOUDY    50  42  74 SW9       29.94F
Southold         N/A     48  41  76 SW7         N/A
Montauk          N/A     52  42  69 SW8       29.95F
$$

NYZ052-065-067-220900-
Hudson Valley

CITY           SKY/WX    TMP DP  RH WIND       PRES   REMARKS
White Plains   MOCLDY    47  33  58 S7        29.90F
Larchmont Harb   N/A     48 N/A N/A S16         N/A
Croton On Huds   N/A     48 N/A N/A S7          N/A
Somers           N/A     45  34  65 S7          N/A
Brewster         N/A     45  34  65 S3          N/A
Newburgh       CLOUDY    46  36  66 SW6       29.88F
Montgomery     CLOUDY    46  33  60 S8        29.85F
Otisville        N/A     45  34  65 SW5         N/A
Warwick          N/A     46  36  66 W6          N/A
Suffern          N/A     45  34  65 S6          N/A
Poughkeepsie   CLOUDY    47  34  60 S5        29.86F
Albany         CLOUDY    47  34  60 S13       29.80F
$$

NJZ001-105-106-008-010-013-015-019>022-104-220900-
New Jersey

CITY           SKY/WX    TMP DP  RH WIND       PRES   REMARKS
Newark/Liberty CLOUDY    48  35  60 S13       29.92F
Teterboro      CLOUDY    48  39  71 S10       29.90F
Caldwell       CLOUDY    49  34  56 SW6       29.91F
Somerville     CLOUDY    45  37  73 CALM      29.89F
Linden         CLOUDY    47  34  60 CALM      29.92F
Perth Amboy      N/A     46 N/A N/A SW7         N/A
Sussex         CLOUDY    46  33  60 CALM      29.87F
Andover          N/A     47  34  60 SW7       29.88F
Trenton        CLOUDY    47  36  65 S7        29.91F
Millville      CLOUDY    48  38  68 VRB3      29.96F
Atlantic City  CLOUDY    49  36  61 SW9       29.96F
Wrightstown    CLOUDY    46  36  69 S7        29.92
Toms River     CLOUDY    46  38  73 SW6       29.94F
Belmar         CLOUDY    46  35  65 S8        29.94F
$$

PAZ047>061-062-071-220900-
Eastern Pennsylvania

CITY           SKY/WX    TMP DP  RH WIND       PRES   REMARKS
Philadelphia   CLOUDY    49  36  61 SW8       29.94F
Allentown      CLOUDY    48  35  60 SW3       29.90F HAZE
Scranton       CLOUDY    48  33  56 SW7       29.84F
$$

CTZ002-004>006-009-010-012-RIZ004-006-007-MAZ004-011-015-220900-
Southern New England

 In CT

CITY           SKY/WX    TMP DP  RH WIND       PRES   REMARKS
Bradley Intl   CLOUDY    47  38  71 S13       29.87F
Hartford       CLOUDY    46  38  73 S7        29.89F
Danbury        CLOUDY    47  32  56 SW6       29.90F
Wtrbury/Oxford CLOUDY    44  35  70 SW9       29.89F
Norwalk Harbor   N/A     48 N/A N/A S15         N/A
Bridgeport     CLOUDY    50  37  61 SW14      29.92F
Meriden        CLOUDY    47  36  65 S9        29.89F
New Haven      CLOUDY    52  40  63 SW8       29.92F
Chester        PTSUNNY   48  39  71 VRB6G17   29.90F
Groton         CLOUDY    50  43  77 SW16G23   29.92F
Willimantic    CLOUDY    36  34  92 CALM      29.92F

 In RI

CITY           SKY/WX    TMP DP  RH WIND       PRES   REMARKS
Providence     CLOUDY    42  37  82 S7        29.93F
Block Island   MOCLDY    51  43  74 SW18G25   29.94F
Westerly       MOCLDY    52  41  66 SW13      29.94F

In MA

CITY           SKY/WX    TMP DP  RH WIND       PRES   REMARKS
Boston         MOCLDY    44  36  73 SW9       29.90F
Worcester      CLOUDY    41  34  76 SW16G25   29.86F
Westfield      CLOUDY    42  35  76 S6        29.86F
Provincetown     N/A    N/A N/A N/A MISG        N/A
Nantucket      MOCLDY    48  44  86 SW9       29.97F
$$

ANZ330-335-338-340-345-350-353-355-220900-
Coastal Marine Observations


STATION/POSITION TIME  SKY/WX   TEMP    WIND        PRES    VSBY  WAVE
                                AIR SEA DIR/SP/G                  HT/PER
                 (UTC)          (F)     (DEG/KT/KT) (MB)    (MI)  (FT/S)
NY Harb Entrance 0750            51 54  210/ 19/ 23 1013.5          5/ 5
20 S Fire Island 0750            54 55  220/ 19/ 23 1013.8          6/ 6
Great South Bay  0730            48 42  230/ 14/ 17   N/A
23 SSW Montauk P NOT AVBL
15 E Barnegat Li 0800               55                N/A           5/ 5
Hudson Canyon    0800            56     230/ 19/ 23 1015.8
Kings Point      0730            48 49  230/ 11/ 13 1013.7
Execution Rocks  0745            48 32  190/ 12/ 14   N/A
Western LI Sound 0745            49     190/ 10/ 14   N/A           1/ 3
Central LI Sound NOT AVBL
Robbins Reef     0730            48     190/ 11/ 12 1013.2
$$


>>>>>>>>>>>>>>>>>>>>>>>>>>>> KEY <<<<<<<<<<<<<<<<<<<<<<<<<<<
>                                                          <
>     SKY/WX - Sky Condition/Present Weather               <
>     TMP    - Temperature in Fahrenheit                   <
>     DP     - Dew Point in Fahrenheit                     <
>     RH     - Relative Humidity in Percent                <
>     WIND   - Direction (from) and Speed in MPH           <
>     PRES   - Mean Sea Level Pressure (inches of Hg)      <
>     WCI    - Wind Chill Index                            <
>     VSB    - Visibility in Miles                         <
>     HX     - Heat Index                                  <
>     TC     - Temperature in Celsius                      <
>     VRB    - Variable Wind Direction                     <
>                                                          <
>>>>>>>>>>>>>>>>>>>>>>>>>>>> KEY <<<<<<<<<<<<<<<<<<<<<<<<<<<




USA.gov is the U.S. government's official web portal to all federal, state and local government web resources and services.